Powrót do katalogu

METEOR 2-8 DEB

AktywnyPO
NORAD 36354·DEBRIS·🇷🇺 Russia

Wystrzelony Mar 25, 1982 z Plesetsk Cosmodrome

Loading…

Następne Przeloty (najbliższe 24 godziny)

TLE

NieaktualneSource: Space-Track

Epoka: Sep 1, 2026, 09:20 UTC

1 36354U 82025AQ  26244.38952086  .00002368  00000-0  92979-3 0  9995
2 36354  82.4915 126.3478 0014220 192.9826 167.0995 14.28973600190657

Śledź METEOR 2-8 DEB w czasie rzeczywistym z AllMySat

Download on the App Store